Location: Newark
(39.5667°N, 8.9833°E)
Time: 10:16:46
(UTC+00:00)

Transit 2A - Pass Details

Date: 30 October 2019
Orbit: 601 x 957 km, 66.7° (Epoch: 14 November)

Event Time Altitude Azimuth Distance (km) Brightness Sun altitude
Rises 23:59:06 0° 346° (NNW) 2,883 - -61.7°
Reaches altitude 10° 00:02:18 10° 11° (N) 1,954 - -61.4°
Maximum altitude 00:04:47 15° 46° (NE) 1,654 - -61.2°
Drops below altitude 10° 00:07:17 10° 81° (E) 1,951 - -60.9°
Sets 00:10:27 0° 106° (ESE) 2,875 - -60.6°
